Overview Statistics Trail Chart Weather Telemetry Raw packets
 

This is the latest recevied weather packets stored in our database for station/object G0TQM-11. If no packets are shown the sender has not sent any weather packets the latest 10 day(s).

<< 7 8 9 10 11 12 13 >>
Time Temp. Humidity Pressure Rain* Wind** Luminosity Snow
1788438117 24.44° C 47% 1011.1 hPa - - - -
1788436917 23.33° C 49% 1011.2 hPa - - - -
1788435717 23.89° C 48% 1011.3 hPa - - - -
1788434517 24.44° C 49% 1011.3 hPa - - - -
1788433317 26.11° C 43% 1011.1 hPa - - - -
1788432116 26.11° C 42% 1011.3 hPa - - - -
1788430916 26.67° C 42% 1011.3 hPa - - - -
1788429716 26.11° C 42% 1011.3 hPa - - - -
1788428516 24.44° C 45% 1011.2 hPa - - - -
1788427316 23.33° C 46% 1011.2 hPa - - - -
1788426116 23.33° C 46% 1011 hPa - - - -
1788424916 23.33° C 45% 1010.9 hPa - - - -
1788423715 23.33° C 48% 1010.6 hPa - - - -
1788422519 21.67° C 51% 1010.8 hPa - - - -
1788421315 22.22° C 51% 1010.6 hPa - - - -
1788420115 21.67° C 54% 1010.5 hPa - - - -
1788418915 21.11° C 55% 1010.6 hPa - - - -
1788417715 21.11° C 55% 1010.4 hPa - - - -
1788416515 21.11° C 54% 1010 hPa - - - -
1788415314 21.11° C 53% 1009.8 hPa - - - -
1788414114 21.67° C 53% 1009.8 hPa - - - -
1788412914 21.11° C 54% 1009.8 hPa - - - -
1788411714 21.11° C 54% 1009.9 hPa - - - -
1788410514 21.67° C 52% 1009.7 hPa - - - -
1788409314 21.67° C 53% 1009.8 hPa - - - -

* Rain since midnight (hover to see other rain measurements)
** Current wind speed in m/s (hover to see current wind gust speed)